Starlink 30152

operational
NORAD ID: 56828 Int'l Des: 2023-079 Owner: SPXS Country: US Constellation: starlink
LEOCIRCULAR

About Starlink 30152

Description loading...

Live Position

Loading 3D Globe...

Upcoming Passes

Altitude History

Altitude vs Time

uPlot chart will show altitude changes over time

Two-Line Element Set

1 56828U 23079F 25260.23832788 -.00000926 00000-0 -53515-4 0 9998
2 56828 43.0034 329.7875 0001672 280.2214 79.8440 15.02532854126793
Epoch: Sep 17, 2025 • Age: 22 hours

Current Status

Altitude 568.3 km
Velocity 7.58 km/s
Sub-Earth Point -35.70°S, 139.52°W
Launch Date Jun 4, 2023
Age 2.2 years
Type internet

Technical Details

Classification Payload
Mass 730.00 kg
Dry Mass 700.00 kg
Total Mass 730.00 kg
Length 0.30 m
Diameter 4.10 m
Span 29.00 m
Shape Box + pan
Manufacturer SPXS
Bus Type Starlink V2M
Phase Status In Orbit
Owner/State SPXS/US

Large Constellations

Loading constellations...